{"data":{"norad_id":68370,"epoch":"2026-05-25T04:28:45.687360Z","epoch_age_seconds":55573,"freshness":"FRESH","line1":"1 68370U 26061L   26145.18663990  .00075853  00000+0  28230-3 0  9994","line2":"2 68370  82.2961  37.7995 0000896 256.9753 103.1418 15.87778546  9931","mean_motion":15.87778546,"eccentricity":8.96e-5,"inclination_deg":82.2961,"raan_deg":37.7995,"arg_perigee_deg":256.9753,"mean_anomaly_deg":103.1418,"bstar":0.0002823,"rev_number":993,"period_min":90.692748282039,"perigee_km":307.91331468696,"apogee_km":309.11156226634,"semimajor_km":6686.6494384767,"source":"CELESTRAK","updated_at":"2026-05-25T13:38:07.766626Z"}}